リニア彗星

392P/LINEAR (2005)

English version
Home page
Updated on November 24, 2019

---------------------------------------------------------------------

・ プロフィール

符号 392P/2004 WR9
発見日 2004年11月22日
発見光度 18.7等
発見者 Lincoln Laboratory Near-Earth Asteroid Research project

・ 軌道要素

Epoch 2005 Jan. 30.0 TT = JDT 2453400.5                                         
T 2005 Jan. 11.49426 TT                                 Williams                
q   1.9171687            (2000.0)            P               Q                  
n   0.06606229     Peri.   70.63345     -0.10441774     -0.99381434             
a   6.0603861      Node    25.45078     +0.87625975     -0.10991740             
e   0.6836557      Incl.    5.04836     +0.47038897     -0.01584998             
P  14.9                                                                         
From 287 observations 2004 Nov. 22-2019 Oct. 27, mean residual 0".4.            

・ 星図

・ 光度変化

        m1 = 14.5 + 5 logΔ + 10.0 log r

---------------------------------------------------------------------

軌道要素はM.P.E.C. 2019-U245に掲載されたものです。
星図は StellaNavigator Ver.2.0 for Windows (アストロアーツ 編著 / アスキー出版局刊) で作成したものです。
光度グラフはComet for Windowsで作成したものです。

---------------------------------------------------------------------

Copyright(C) Seiichi Yoshida (comet@aerith.net). All rights reserved.